STARLINK-1935 (46771 NORAD) Tracking and Keplerian Element Data

This shows tracking and keplerian element data for the satellite.

Feedback or suggestion? Click here.




ElementValue
Catalog46771
NameSTARLINK-1935
Epoch Orbit515
Epoch Day328.16667824
Epoch Year2020
RAAN15.5854
Inclination53.0559
Eccentricity0.0001329
Argument of Perigee67.5388
Mean Anonmoly107.175
Mean Motion15.54771437
Decay Rate-0.01089242
L11 46771U 20074AJ 20328.16667824 -.01089242 00000-0 -17749-1 0 9990
L22 46771 53.0559 15.5854 0001329 67.5388 107.1750 15.54771437 5150

Live tracking and technical data element details for STARLINK-1935 (NORAD 46771). STARLINK-1935 can be tracked NOW for your location showing map with azimuth and elevation plus other details from your city location.

Track the satellite on the map from your city or location and see movement details for azimuth, elevation, latitude, longitude, range, height, and movement on the map or in text.







IsCatalogInMostPopularTable: catalog: 46771, numindb: 6
Update: records affected: 1



GetName: 46771 STARLINK-1935

Hit Count: updated at: Tue, 24 Nov 2020 12:29:06 GMT